Location: Asheville, NC
(35.6000°N, 82.5500°W)
Time: 01:39:47
(UTC-04:00)

KKS-1 - Pass Details

Date: 08 January 2018
Orbit: 637 x 650 km, 98.4° (Epoch: 20 July)

Event Time Altitude Azimuth Distance (km) Brightness Sun altitude
Rises 06:00:50 0° 197° (SSW) 2,927 ? -19.8°
Reaches altitude 10° 06:03:27 10° 213° (SSW) 2,021 ? -19.2°
Enters shadow 06:04:05 13° 219° (SW) 1,833 ? -19.1°
